Content
SEND FEEDBACK

Daily
Averages
Monthly
Summary
United States of America

BOSTON, MASSACHUSETTS


Home > North America > United States > Massachusetts
Elevation: 4 feet     Latitude: 42 22N     Longitude: 071 02W

WEATHER
 
SELECT A DAY
Number of Records: 202,348;   Date Range: 1/1/95 - 7/7/14
 
SHARE

PRINT THIS DATA

[ ← Previous Day ]
WEATHER ALMANAC - APRIL 17, 2013
[ Next Day → ]
[ °C ]   °F
Weather ElementAverageHighLow
Temperature56.6 °F64.9 °F (1:54 pm)46.9 °F (10:54 pm)
Dewpoint39.1 °F51.8 °F (3:36 am)27 °F (2:54 pm)
Humidity54.7 %82 % (3:36 am)24 % (2:54 pm)
Barometer30.18 in30.34 in (10:54 pm)30.07 in (1:54 am)
Wind Speed10.3 mph18.4 mph (1:54 am)
Wind Gust26.5 mph (1:54 am)
Weather ElementAverage
Visibility10 mi
Wind DirectionWSW (230.8 °)

Weather ElementTotal
Precipitation---
Heating Degree Days9.1 (Base 65)
Growing Degree Days5.9 (Base 50)
Averaged from 26 records on April 17, 2013
WEATHER CONDITIONS BREAKOUT
WIND DIRECTION BREAKOUT
WEATHER BY HOUR - APRIL 17, 2013
[ °C ]   °F
Local TimeTemperatureDewpointHumidityBarometerVisibilityWind DirectionWind SpeedGust SpeedPrecipitationEventsConditions
1:54 AM59.0 °F48.9 °F69 %30.07 in10.0 miWest (260°)18.4 mph26.5 mphOvercast
2:01 AM57.2 °F48.2 °F72 %30.07 in10.0 miWSW (250°)15.0 mph26.5 mphOvercast
2:54 AM57.9 °F50.0 °F75 %30.08 in10.0 miWest (270°)15.0 mph24.2 mphOvercast
3:02 AM57.2 °F50.0 °F77 %30.08 in10.0 miWest (270°)15.0 mph20.7 mphOvercast
3:36 AM57.2 °F51.8 °F82 %30.08 in10.0 miWest (260°)11.5 mphOvercast
3:54 AM57.9 °F50.0 °F75 %30.07 in10.0 miWest (260°)12.7 mph20.7 mphOvercast
4:54 AM57.9 °F44.1 °F60 %30.10 in10.0 miWest (280°)17.3 mph21.9 mphOvercast
5:54 AM55.9 °F41.0 °F57 %30.11 in10.0 miWNW (300°)12.7 mphOvercast
6:54 AM55.0 °F41.0 °F59 %30.13 in10.0 miNW (310°)12.7 mph17.3 mph0.00 inScattered Clouds
7:54 AM55.0 °F37.0 °F51 %30.16 in10.0 miNorth (350°)13.8 mphScattered Clouds
8:54 AM55.9 °F37.0 °F49 %30.18 in10.0 miNorth (350°)13.8 mph19.6 mphScattered Clouds
9:54 AM57.0 °F35.1 °F44 %30.19 in10.0 miNorth (360°)10.4 mph19.6 mphScattered Clouds
10:54 AM59.0 °F33.1 °F38 %30.19 in10.0 miWNW (290°)12.7 mphScattered Clouds
11:54 AM60.1 °F30.9 °F33 %30.19 in10.0 miNNW (330°)10.4 mphPartly Cloudy
12:54 PM63.0 °F28.0 °F27 %30.18 in10.0 miNNW (330°)10.4 mph19.6 mphPartly Cloudy
1:54 PM64.9 °F28.0 °F25 %30.18 in10.0 miNorth (350°)8.1 mph18.4 mphPartly Cloudy
2:54 PM64.9 °F27.0 °F24 %30.17 in10.0 miNNW (340°)8.1 mph21.9 mphPartly Cloudy
3:54 PM59.0 °F36.0 °F42 %30.19 in10.0 miVariable6.9 mphClear
4:54 PM60.1 °F36.0 °F41 %30.19 in10.0 miEast (100°)11.5 mphClear
5:54 PM55.9 °F39.0 °F53 %30.22 in10.0 miEast (100°)8.1 mphPartly Cloudy
6:54 PM53.1 °F37.9 °F57 %30.25 in10.0 miEast (90°)4.6 mphScattered Clouds
7:54 PM51.1 °F37.0 °F59 %30.27 in10.0 miEast (80°)8.1 mphMostly Cloudy
8:54 PM51.1 °F37.0 °F59 %30.30 in10.0 miCalmPartly Cloudy
9:54 PM50.0 °F37.9 °F63 %30.32 in10.0 miESE (120°)5.8 mphClear
10:54 PM46.9 °F39.0 °F74 %30.34 in10.0 miCalmClear
11:54 PM50.0 °F35.1 °F57 %30.34 in10.0 miNorth (350°)5.8 mphClear
Hourly data recorded from KBOS, located miles away from Boston, Massachusetts







STORIES FROM OUR PARTNERS